GSAT0223 (GALILEO 27)

Last updated on Tue Oct 14 2025 00:02:34 GMT+0000 (Coordinated Universal Time)

1 49809U 21116A 25286.60347213 -.00000097 00000+0 00000+0 0 9995 2 49809 57.2333 348.3390 0004476 226.9636 119.0921 1.70475970 23974
UTC large
Height (km)
Speed (km/s)
/
Latitude / Longitude
Inclination (degrees)
Orbital Period (minutes)
Azimuth
Elevation
Range (km)
Doppler Factor

Next 0 passes for location: London (51.5072 / 0.1276)

Sorry there are no passes over London.